Location: B?jaj?g
(11.7167°N, 92.6667°E)
Time: 22:38:58
(UTC+00:00)

Chandra Rocket (1) - Pass Details

Date: 18 September 2020
Orbit: 337 x 11015 km, 28.4° (Epoch: 20 October)

Event Time Altitude Azimuth Distance (km) Brightness Sun altitude
Exits shadow 22:32:49 - 300° (WNW) 6,058 6.6 -16.9°
Reaches altitude 10° 22:35:16 10° 303° (WNW) 5,149 6.3 -16.3°
Maximum altitude 22:45:19 33° 4° (N) 1,595 4.2 -13.9°
Drops below altitude 10° 22:49:08 10° 71° (ENE) 1,932 5.9 -12.9°
Sets 22:50:47 0° 83° (E) 2,526 7.3 -12.5°
